STARLINK-32843, 62814

Orbit data source: Space-Track

STARLINK-32843, 62814 is a payload satellite owned by SpaceX/Seattle (US) in LEO that was launched on Fri, 24 Jan 2025 UTC via an FALCON 9 launch vehicle from the Air Force Western Test Range (AFWTR). Payload-class satellites include a variety of spacecraft equipped with specific instruments for various scientific and technological missions. These include communications satellites like Starlink; space stations such as the ISS; scientific satellites like the Hubble; Earth observation satellites from companies like Planet Labs, Umbra, and HawkEye 360; GPS; miniature CubeSats for education and research; and military/defense satellites.

Loading next visibility...
Identifier
62814, 2025-018J
Orbit
LEO
Last TLE update
10 hours ago
Origin
Manufacturer
SpaceX/Seattle
Mission
Operational Commercial Communications
Bus & Motor
STARLINK V2M, Unknown motor
Mass
730 kg wet, ~700 kg dry
Launch date (UTC)
2025-01-24 (5 months ago)
Launch vehicle
FALCON 9
Launch site
Air Force Western Test Range (AFWTR)
Object type
Payload
Rocket body
Debris
Shape & HBR
Box + 2 Pan, 29 m
Radar Cross Section
33.884 m², Large (>1 m²)

Expand to show TLE details & history

TLE from 10 hours ago
0 STARLINK-32843
1 62814U 25018J   25186.51772147  .00017309  00000-0  59488-3 0  9990
2 62814  53.1598  17.8065 0001422  83.9374 276.1789 15.30216182 25325
Epoch: 2025-07-05T12:25Z
TLE epoch observation values (Epoch: 2025-07-05T12:25:31.135Z)
Latitude
0.00002°
Longitude
-92.32784°
Altitude
475.962 km
Speed
7.629 km/s
True Right ascension
01h 11m 13s
True Declination
0° 00' 00"
Sunlit
Object was in daylight at epoch
Visualization orbit readout
Latitude
39.2048°
Longitude
-56.76542°
Altitude
477.732 km
Speed
7.632 km/s
Apparent Right ascension
00h 54m 54s
Apparent Declination
1° 48' 36"
Sunlit
Object is in daylight
Visualization observer readout
Local Sidereal Time
09:59:30
Azimuth
305.105° NW
Elevation
-32.179°
Doppler factor
1
Orbital elements
Apogee altitude
476.398 km
Perigee altitude
474.449 km
Semi-major axis
6,853.56 km
Eccentricity
0.00014
Inclination
53.1598°
RAAN
17.8065°
Arg. of periapsis
83.9374°
True anomaly
Unknown
Mean anomaly
276.1789°
Eccentric anomaly
Unknown
Mean motion
3.82533 °/min
Orbital period
94.11 mins
BSTAR
0.00059488
Loading maneuver chart data...
Loading SW <> Apogee altitude chart data...
Loading historical data...
Loading historical data...
Loading historical data...
Loading historical data...
Loading historical data...
Loading historical data...
Loading historical data...

STARLINK-32843 Visibility forecast

Observer location: undefined°, undefined°

Span
Click to sort rows by Start time (UTC) header in descending order
Start Az.
Max El. time (UTC)
Max El. Az.
Max El.
End time (UTC)
End Az.
6 mins2025-07-05 22:19:22.523Z314.026° NW2025-07-05 22:22:22.523Z13.719° NNE43.522°2025-07-05 22:25:22.523Z122.96° SE
6 mins2025-07-06 15:15:22.523Z221.653° SW2025-07-06 15:18:22.523Z80.6° E42.039°2025-07-06 15:21:22.523Z53.177° ENE
4 mins2025-07-06 20:12:22.523Z342.347° N2025-07-06 20:14:22.523Z16.656° NNE15.003°2025-07-06 20:16:22.523Z52.181° ENE
6 mins2025-07-06 21:50:22.523Z318.991° NNW2025-07-06 21:53:22.523Z73.425° E40.096°2025-07-06 21:56:22.523Z119.024° SE
|